Location: Sternwarte_Laufen
(47.9344°N, 12.9346°E)
Time: 04:38:48
(UTC+02:00)

ISS - Pass Details

Date: 11 July 2025
Orbit: 413 x 417 km, 51.6° (Epoch: 12 July)

Event Time Altitude Azimuth Distance (km) Brightness Sun altitude
Rises 02:00:09 0° 292° (WNW) 2,358 0.2 -19.2°
Reaches altitude 10° 02:02:15 10° 294° (WNW) 1,494 -0.8 -19.1°
Maximum altitude 02:05:36 72° 20° (NNE) 441 -3.6 -19.0°
Drops below altitude 10° 02:08:56 10° 105° (ESE) 1,491 -1.0 -18.9°
Sets 02:11:02 0° 108° (ESE) 2,353 0.0 -18.8°
